Weather History for KLNK - September, 2013

Change the Weather History Date:

Monday, September 23, 2013

  Actual Average Record
Temperature  
Mean Temperature 66 °F 63 °F  
Max Temperature 79 °F 76 °F 97 °F (1921)
Min Temperature 53 °F 50 °F 31 °F (1983)
Degree Days  
Heating Degree Days 0 5  
Month to date heating degree days 17 52  
Since 1 July heating degree days 20 58  
Cooling Degree Days 1 2  
Month to date cooling degree days 175 110  
Year to date cooling degree days 1190 1145  
Growing Degree Days 17 (Base 50)    
Moisture  
Dew Point 49 °F    
Average Humidity 56    
Maximum Humidity 77    
Minimum Humidity 35    
Precipitation  
Precipitation 0.00 in 0.09 in 3.63 in (1910)
Month to date precipitation 1.75 2.41  
Year to date precipitation 22.20 23.99  
Snow  
Snow 0.00 in 0.00 in - ()
Month to date snowfall 0.0 0.0  
Since 1 July snowfall 0.0 0.0  
Snow Depth 0.00 in    
Sea Level Pressure  
Sea Level Pressure 29.75 in    
Wind  
Wind Speed 18 mph (SSE)    
Max Wind Speed 31 mph    
Max Gust Speed 40 mph    
Visibility 10 miles    
Events      
T = Trace of Precipitation, MM = Missing Value Source: NWS Daily Summary

Daily Weather History Graph

Daily Weather History Graph

Search for Another Location

Airport or City:

Trip Planner

Search our weather history database for the weather conditions in past years. The results will help you decide how hot, cold, wet, or windy it might be!

Date:

Astronomy

Sep. 23, 2013 Rise Set
Actual Time 7:15 AM CDT 7:22 PM CDT
Civil Twilight 6:48 AM CDT 7:49 PM CDT
Nautical Twilight 6:16 AM CDT 8:21 PM CDT
Astronomical Twilight 5:43 AM CDT 8:53 PM CDT
Moon 9:53 PM CDT 11:38 AM CDT
Length of Visible Light 13h 00m
Length of Day
12h 06m
Waning Gibbous, 81% of the Moon is Illuminated
Sep 23
Waning Gibbous
Sep 26
Last Quarter
Oct 4
New
Oct 11
First Quarter
Oct 18
Full

Hourly Weather History & Observations

Time (CDT) Temp. Dew Point Humidity Pressure Visibility Wind Dir Wind Speed Gust Speed Precip Events Conditions
12:54 AM 59.0 °F 48.0 °F 67% 29.82 in 10.0 mi SSE 9.2 mph - N/A   Clear
1:54 AM 60.1 °F 48.0 °F 64% 29.81 in 10.0 mi SSE 11.5 mph - N/A   Clear
2:54 AM 57.9 °F 48.0 °F 70% 29.80 in 10.0 mi SSE 10.4 mph - N/A   Clear
3:54 AM 57.0 °F 48.0 °F 72% 29.78 in 10.0 mi SSE 12.7 mph - N/A   Clear
4:54 AM 57.0 °F 48.0 °F 72% 29.78 in 10.0 mi SSE 12.7 mph - N/A   Clear
5:54 AM 55.9 °F 48.0 °F 75% 29.78 in 10.0 mi South 11.5 mph - N/A   Clear
6:54 AM 55.0 °F 48.0 °F 77% 29.80 in 10.0 mi SSE 11.5 mph - N/A   Clear
7:54 AM 55.0 °F 48.9 °F 80% 29.81 in 10.0 mi South 9.2 mph - N/A   Clear
8:54 AM 59.0 °F 48.9 °F 69% 29.79 in 10.0 mi South 15.0 mph - N/A   Clear
9:54 AM 64.0 °F 51.1 °F 63% 29.79 in 10.0 mi SSE 12.7 mph - N/A   Clear
10:54 AM 71.1 °F 52.0 °F 51% 29.78 in 10.0 mi SSE 17.3 mph 23.0 mph N/A   Clear
11:54 AM 73.9 °F 51.1 °F 45% 29.76 in 10.0 mi SSE 25.3 mph 33.4 mph N/A   Clear
12:54 PM 77.0 °F 51.1 °F 40% 29.75 in 10.0 mi South 24.2 mph 33.4 mph N/A   Clear
1:54 PM 77.0 °F 48.0 °F 36% 29.70 in 10.0 mi SSE 28.8 mph 40.3 mph N/A   Clear
2:54 PM 78.1 °F 48.0 °F 35% 29.71 in 10.0 mi SSE 21.9 mph 34.5 mph N/A   Clear
3:54 PM 78.1 °F 50.0 °F 37% 29.69 in 10.0 mi SSE 24.2 mph 31.1 mph N/A   Clear
4:54 PM 75.0 °F 50.0 °F 41% 29.70 in 10.0 mi SSE 24.2 mph 31.1 mph N/A   Clear
5:54 PM 73.9 °F 50.0 °F 43% 29.70 in 10.0 mi SE 19.6 mph 25.3 mph N/A   Scattered Clouds
6:54 PM 72.0 °F 48.9 °F 44% 29.70 in 10.0 mi SE 19.6 mph 27.6 mph N/A   Partly Cloudy
7:54 PM 71.1 °F 48.0 °F 44% 29.71 in 10.0 mi SE 17.3 mph 24.2 mph N/A   Partly Cloudy
8:54 PM 70.0 °F 48.9 °F 47% 29.70 in 10.0 mi SE 19.6 mph 27.6 mph N/A   Mostly Cloudy
9:54 PM 68.0 °F 51.1 °F 55% 29.70 in 10.0 mi ESE 20.7 mph 27.6 mph N/A   Overcast
10:54 PM 68.0 °F 52.0 °F 56% 29.67 in 10.0 mi SE 24.2 mph 32.2 mph N/A   Overcast
11:54 PM 68.0 °F 52.0 °F 56% 29.67 in 10.0 mi SSE 19.6 mph 27.6 mph N/A   Overcast